Regional Weather Roundup
Issued by NWS

Home | Current Version | Previous Version | Text Only | Print | Product List | Glossary Off
Versions: 1 2 3 4 5 6 7 8 9 10 11 12 13 14 15 16 17 18 19 20 21 22 23 24 25 26 27 28 29 30 31 32 33 34 35 36 37 38 39 40 41 42 43 44 45 46 47 48 49 50

000
ASUS43 KBIS 250810
RWRND

NORTH DAKOTA REGIONAL WEATHER ROUNDUP
NATIONAL WEATHER SERVICE BISMARCK ND
300 AM CDT SUN JUN 25 2017

NOTE: "FAIR" INDICATES FEW OR NO CLOUDS BELOW 12,000 FEET WITH NO
SIGNIFICANT WEATHER AND/OR OBSTRUCTIONS TO VISIBILITY.


NDZ001>003-009>011-017-250900-
NORTHWEST NORTH DAKOTA

CITY           SKY/WX    TMP DP  RH WIND       PRES   REMARKS
WILLISTON      CLEAR     50  40  68 SW7       30.26S
MINOT          CLOUDY    50  40  68 SW9       30.25R
MINOT AFB      CLOUDY    46  42  86 CALM      30.24S
$$

NDZ018>021-031>035-040>046-250900-
SOUTHWEST NORTH DAKOTA

CITY           SKY/WX    TMP DP  RH WIND       PRES   REMARKS
BISMARCK       CLEAR     43  39  86 SW5       30.28F
DICKINSON      CLEAR     39  32  76 S7        30.28F
GARRISON         N/A     45  37  73 W3        30.26S
HETTINGER ARPT CLEAR     35  28  75 CALM      30.33F
$$

NDZ004>008-012>016-024-026-027-054-250900-
NORTHEAST NORTH DAKOTA

CITY           SKY/WX    TMP DP  RH WIND       PRES   REMARKS
GRAND FORKS    CLEAR     45  42  89 NW8       30.19R
GRND FRKS AFB  CLEAR     46  41  84 NW7       30.20R
DEVILS LAKE    CLEAR     44  42  93 NW7       30.23S
$$

NDZ022-023-025-028>030-036>039-047>053-250900-
SOUTHEAST NORTH DAKOTA

CITY           SKY/WX    TMP DP  RH WIND       PRES   REMARKS
FARGO          CLEAR     50  43  77 NW12      30.18S
JAMESTOWN      CLEAR     46  43  89 NW7       30.23S
$$




USA.gov is the U.S. government's official web portal to all federal, state and local government web resources and services.